Regional Weather Roundup
Issued by NWS

Home | Current Version | Previous Version | Graphics & Text | Print | Product List | Glossary On
Versions: 1 2 3 4 5 6 7 8 9 10 11 12 13 14 15 16 17 18 19 20 21 22 23 24 25 26 27 28 29 30 31 32 33 34 35 36 37 38 39 40 41 42 43 44 45 46 47 48 49 50
000
ASUS43 KFSD 161302
RWRSD

WEATHER ROUNDUP FOR SOUTH DAKOTA
NATIONAL WEATHER SERVICE SIOUX FALLS SD
700 AM CST MON JAN 16 2017

NOTE: "FAIR" INDICATES FEW OR NO CLOUDS BELOW 12,000 FEET WITH NO
SIGNIFICANT WEATHER AND/OR OBSTRUCTIONS TO VISIBILITY.


SDZ001>005-009-010-012>017-161400-
NORTHWEST AND NORTH CENTRAL SOUTH DAKOTA

CITY           SKY/WX    TMP DP  RH WIND       PRES   REMARKS
BUFFALO          N/A     14   4  64 W12       29.99F WCI   0
FAITH            N/A     12   3  67 NW13      30.06R WCI  -3
MOBRIDGE       CLOUDY    -3  -9  75 CALM      30.05S
$$

SDZ012>016-024>037-041>051-057-063-072>074-161400-
SOUTHWEST AND SOUTH CENTRAL SOUTH DAKOTA

CITY           SKY/WX    TMP DP  RH WIND       PRES   REMARKS
RAPID CTY ARPT CLOUDY    25  10  53 N16       30.06R WCI  12
PIERRE         CLOUDY     7   5  91 CALM      30.08R
CUSTER         CLOUDY    20  13  74 NW5       30.02R WCI  13
ELLSWORTH AFB  CLOUDY    30   7  37 N15       30.05R WCI  19
PHILIP         CLOUDY     8   4  83 W9        30.08R WCI  -5
PINE RIDGE     CLOUDY    21  20  96 NW5       30.07R WCI  15
SPEARFISH      FAIR      23   7  50 W14       30.09R WCI  11
WINNER         PTSUNNY   20  16  84 N5        30.08R WCI  13
$$

SDZ004>011-016>023-039-040-161400-
NORTHEAST SOUTH DAKOTA

CITY           SKY/WX    TMP DP  RH WIND       PRES   REMARKS
ABERDEEN       CLOUDY     0  -6  76 S7        30.10S WCI -13
WATERTOWN      CLOUDY     9   5  84 CALM      30.08S FOG
BROOKINGS      CLOUDY    10   7  87 CALM      30.08R
SISSETON         N/A     14  12  92 S5        30.09R WCI   6
$$

SDZ017-020-022-023-036>040-048>070-161400-
SOUTHEAST SOUTH DAKOTA

CITY           SKY/WX    TMP DP  RH WIND       PRES   REMARKS
SIOUX FALLS    CLOUDY    25  21  85 N5        30.08F WCI  19
HURON          CLOUDY    11   7  84 N6        30.10S WCI   1
CHAMBERLAIN    CLOUDY    15  13  92 W3        30.09R
MITCHELL       CLOUDY    16  14  92 NW6       30.11R WCI   7
YANKTON        CLOUDY    30  28  93 NE6       30.06S WCI  24
$$

ABBREVIATIONS USED IN REMARKS
   TC - TEMPERATURE IN CELSIUS
  WCI - WIND CHILL INDEX
   HX - HEAT INDEX
  VSB - VISIBILITY





USA.gov is the U.S. government's official web portal to all federal, state and local government web resources and services.